HKE623 RJTT-VHHH

Flight info

Callsign HKE623
Flight time 4h 34m
Altitude 34000
Route LAXAS Y56 TOHME Y54 TURFY Y24 KOSHI A1 IGMON/N0469F300 A1 ELATO V522 ABBEY
Aircraft A321/M-SDE3FGHIRWY/LB1

Departure

Time 2026-05-05 18:27
Airport Tokyo Haneda International Airport (RJTT)

Arrival

Time 2026-05-05 23:02
Airport Hong Kong International Airport (VHHH)
Time Latitude Longitude Altitude Speed Heading
2026-05-05 17:50 35.55000 139.76954 28 ft 0 kts 150°
2026-05-05 18:15 35.55011 139.76946 24 ft 4 kts 146°
2026-05-05 18:16 35.55031 139.76925 24 ft 4 kts 128°
2026-05-05 18:16 35.55043 139.76898 26 ft 4 kts 92°
2026-05-05 18:16 35.55044 139.76893 26 ft 4 kts 83°
2026-05-05 18:16 35.55041 139.76881 26 ft 0 kts 61°
2026-05-05 18:18 35.55042 139.76882 26 ft 1 kts 61°
2026-05-05 18:19 35.55052 139.76904 26 ft 6 kts 61°
2026-05-05 18:19 35.55077 139.76961 25 ft 8 kts 63°
2026-05-05 18:19 35.55105 139.77023 23 ft 8 kts 60°
2026-05-05 18:19 35.55139 139.77082 23 ft 9 kts 41°
2026-05-05 18:20 35.55198 139.77092 23 ft 9 kts 341°
2026-05-05 18:20 35.55236 139.77066 23 ft 9 kts 328°
2026-05-05 18:20 35.55313 139.77009 24 ft 10 kts 329°
2026-05-05 18:20 35.55376 139.76964 23 ft 11 kts 331°
2026-05-05 18:21 35.55446 139.76917 23 ft 12 kts 333°
2026-05-05 18:21 35.55521 139.76929 23 ft 11 kts 32°
2026-05-05 18:21 35.55586 139.76982 23 ft 11 kts 34°
2026-05-05 18:21 35.55655 139.77042 25 ft 13 kts 36°
2026-05-05 18:22 35.55734 139.77110 24 ft 15 kts 34°
2026-05-05 18:22 35.55822 139.77184 24 ft 16 kts 35°
2026-05-05 18:22 35.55910 139.77267 24 ft 16 kts 44°
2026-05-05 18:22 35.55970 139.77379 23 ft 16 kts 60°
2026-05-05 18:23 35.56024 139.77494 23 ft 15 kts 59°
2026-05-05 18:23 35.56078 139.77608 23 ft 15 kts 60°
2026-05-05 18:23 35.56132 139.77721 25 ft 15 kts 60°
2026-05-05 18:23 35.56186 139.77834 26 ft 15 kts 59°
2026-05-05 18:24 35.56223 139.77911 23 ft 15 kts 59°
2026-05-05 18:24 35.56277 139.78025 23 ft 16 kts 59°
2026-05-05 18:24 35.56332 139.78140 23 ft 16 kts 60°
2026-05-05 18:24 35.56385 139.78255 24 ft 16 kts 60°
2026-05-05 18:25 35.56439 139.78370 24 ft 15 kts 60°
2026-05-05 18:25 35.56475 139.78445 25 ft 15 kts 60°
2026-05-05 18:25 35.56544 139.78588 24 ft 14 kts 59°
2026-05-05 18:25 35.56562 139.78668 23 ft 6 kts 101°
2026-05-05 18:26 35.56536 139.78699 25 ft 5 kts 153°
2026-05-05 18:26 35.56463 139.78748 25 ft 27 kts 150°
2026-05-05 18:26 35.56098 139.79004 24 ft 94 kts 150°
2026-05-05 18:26 35.55361 139.79525 27 ft 149 kts 150°
2026-05-05 18:27 35.54339 139.80248 171 ft 182 kts 152°
2026-05-05 18:27 35.53249 139.81036 819 ft 185 kts 150°
2026-05-05 18:27 35.52114 139.81859 1462 ft 192 kts 153°
2026-05-05 18:27 35.50977 139.82667 2142 ft 188 kts 154°
2026-05-05 18:28 35.48524 139.84401 2468 ft 223 kts 154°
2026-05-05 18:28 35.47109 139.85386 2736 ft 241 kts 154°
2026-05-05 18:28 35.45590 139.86262 3282 ft 242 kts 169°
2026-05-05 18:29 35.43926 139.86286 3859 ft 242 kts 195°
2026-05-05 18:29 35.42422 139.85388 4416 ft 245 kts 218°
2026-05-05 18:29 35.41072 139.84075 5014 ft 249 kts 218°
2026-05-05 18:29 35.39706 139.82749 5569 ft 253 kts 218°
2026-05-05 18:30 35.38305 139.81396 6079 ft 259 kts 218°
2026-05-05 18:30 35.36872 139.80019 6582 ft 265 kts 217°
2026-05-05 18:30 35.35406 139.78613 7089 ft 269 kts 217°
2026-05-05 18:30 35.33927 139.77192 7620 ft 272 kts 217°
2026-05-05 18:31 35.32431 139.75755 8172 ft 274 kts 217°
2026-05-05 18:31 35.30924 139.74307 8740 ft 276 kts 218°
2026-05-05 18:31 35.29440 139.72806 9319 ft 278 kts 219°
2026-05-05 18:31 35.27966 139.71262 9877 ft 280 kts 219°
2026-05-05 18:32 35.26483 139.69687 10277 ft 289 kts 219°
2026-05-05 18:32 35.24914 139.68025 10399 ft 307 kts 219°
2026-05-05 18:32 35.23254 139.66277 10518 ft 324 kts 219°
2026-05-05 18:32 35.21497 139.64438 10633 ft 340 kts 219°
2026-05-05 18:33 35.19664 139.62529 10896 ft 350 kts 219°
2026-05-05 18:33 35.17803 139.60590 11375 ft 353 kts 219°
2026-05-05 18:33 35.15931 139.58644 11907 ft 354 kts 218°
2026-05-05 18:33 35.14048 139.56688 12444 ft 356 kts 218°
2026-05-05 18:34 35.12157 139.54721 12980 ft 358 kts 218°
2026-05-05 18:34 35.10264 139.52740 13516 ft 360 kts 220°
2026-05-05 18:34 35.08580 139.50463 14039 ft 365 kts 232°
2026-05-05 18:34 35.07315 139.47756 14495 ft 371 kts 244°
2026-05-05 18:35 35.06546 139.44735 14960 ft 377 kts 256°
2026-05-05 18:35 35.06037 139.41586 15422 ft 379 kts 256°
2026-05-05 18:35 35.05518 139.38425 15898 ft 381 kts 256°
2026-05-05 18:35 35.04990 139.35248 16376 ft 383 kts 256°
2026-05-05 18:36 35.04455 139.32063 16849 ft 384 kts 256°
2026-05-05 18:36 35.03918 139.28864 17318 ft 386 kts 256°
2026-05-05 18:36 35.03377 139.25639 17783 ft 388 kts 256°
2026-05-05 18:36 35.02833 139.22406 18246 ft 390 kts 256°
2026-05-05 18:37 35.02286 139.19157 18682 ft 392 kts 257°
2026-05-05 18:37 35.01736 139.15892 19122 ft 393 kts 257°
2026-05-05 18:37 35.01190 139.12636 19594 ft 392 kts 257°
2026-05-05 18:37 35.00643 139.09386 20084 ft 390 kts 256°
2026-05-05 18:38 35.00095 139.06150 20555 ft 389 kts 256°
2026-05-05 18:38 34.99547 139.02922 20999 ft 388 kts 256°
2026-05-05 18:38 34.99000 138.99700 21454 ft 387 kts 257°
2026-05-05 18:38 34.98677 138.96433 21889 ft 389 kts 264°
2026-05-05 18:39 34.98518 138.93152 22327 ft 388 kts 264°
2026-05-05 18:39 34.98354 138.89872 22749 ft 387 kts 264°
2026-05-05 18:39 34.98183 138.86601 23143 ft 386 kts 264°
2026-05-05 18:39 34.98010 138.83330 23520 ft 386 kts 263°
2026-05-05 18:40 34.97838 138.80063 23913 ft 386 kts 263°
2026-05-05 18:40 34.97665 138.76796 24258 ft 386 kts 263°
2026-05-05 18:40 34.97490 138.73538 24567 ft 386 kts 263°
2026-05-05 18:40 34.97314 138.70273 24862 ft 386 kts 263°
2026-05-05 18:41 34.97139 138.67008 25167 ft 386 kts 263°
2026-05-05 18:41 34.96961 138.63741 25456 ft 386 kts 263°
2026-05-05 18:41 34.96784 138.60478 25761 ft 386 kts 263°
2026-05-05 18:41 34.96608 138.57214 26048 ft 386 kts 263°
2026-05-05 18:42 34.96431 138.53948 26322 ft 386 kts 263°
2026-05-05 18:42 34.96250 138.50680 26599 ft 387 kts 263°
2026-05-05 18:42 34.96065 138.47394 26799 ft 389 kts 263°
2026-05-05 18:42 34.95879 138.44102 27029 ft 390 kts 263°
2026-05-05 18:43 34.95692 138.40798 27273 ft 391 kts 263°
2026-05-05 18:43 34.95506 138.37484 27512 ft 392 kts 263°
2026-05-05 18:43 34.95317 138.34166 27751 ft 393 kts 263°
2026-05-05 18:43 34.95126 138.30840 27996 ft 394 kts 263°
2026-05-05 18:44 34.94938 138.27508 28231 ft 394 kts 263°
2026-05-05 18:44 34.94751 138.24178 28280 ft 393 kts 263°
2026-05-05 18:44 34.94372 138.17539 28260 ft 392 kts 263°
2026-05-05 18:45 34.93988 138.10913 28246 ft 393 kts 263°
2026-05-05 18:45 34.93601 138.04274 28254 ft 393 kts 263°
2026-05-05 18:46 34.93206 137.97635 28264 ft 392 kts 263°
2026-05-05 18:46 34.92810 137.91025 28268 ft 390 kts 263°
2026-05-05 18:47 34.92405 137.84431 28278 ft 390 kts 263°
2026-05-05 18:47 34.92000 137.77830 28268 ft 391 kts 263°
2026-05-05 18:48 34.91594 137.71227 28271 ft 388 kts 263°
2026-05-05 18:48 34.90593 137.64950 28273 ft 374 kts 250°
2026-05-05 18:49 34.88809 137.59017 28264 ft 373 kts 250°
2026-05-05 18:49 34.87029 137.53089 28256 ft 372 kts 250°
2026-05-05 18:50 34.85253 137.47180 28254 ft 370 kts 250°
2026-05-05 18:50 34.83524 137.41251 28248 ft 372 kts 251°
2026-05-05 18:51 34.81845 137.35291 28250 ft 372 kts 251°
2026-05-05 18:51 34.80160 137.29346 28265 ft 371 kts 251°
2026-05-05 18:52 34.78460 137.23422 28250 ft 371 kts 250°
2026-05-05 18:52 34.76747 137.17515 28253 ft 370 kts 250°
2026-05-05 18:53 34.75039 137.11607 28269 ft 371 kts 250°
2026-05-05 18:53 34.73335 137.05687 28247 ft 371 kts 250°
2026-05-05 18:54 34.71603 136.99722 28246 ft 372 kts 250°
2026-05-05 18:54 34.69387 136.94121 28244 ft 372 kts 235°
2026-05-05 18:55 34.66190 136.89169 28241 ft 373 kts 234°
2026-05-05 18:55 34.62987 136.84224 28243 ft 372 kts 234°
2026-05-05 18:56 34.59769 136.79256 28240 ft 371 kts 235°
2026-05-05 18:56 34.56587 136.74349 28255 ft 369 kts 235°
2026-05-05 18:57 34.53421 136.69462 28257 ft 368 kts 235°
2026-05-05 18:57 34.50255 136.64588 28253 ft 368 kts 235°
2026-05-05 18:58 34.47108 136.59752 28254 ft 367 kts 235°
2026-05-05 18:58 34.43917 136.54864 28239 ft 368 kts 234°
2026-05-05 18:59 34.40743 136.50010 28231 ft 368 kts 234°
2026-05-05 18:59 34.37568 136.45151 28234 ft 368 kts 234°
2026-05-05 19:00 34.34395 136.40299 28248 ft 368 kts 234°
2026-05-05 19:00 34.31761 136.36269 28237 ft 367 kts 234°
2026-05-05 19:01 34.28589 136.31430 28234 ft 366 kts 234°
2026-05-05 19:01 34.25420 136.26613 28205 ft 366 kts 234°
2026-05-05 19:02 34.22255 136.21801 28228 ft 367 kts 234°
2026-05-05 19:02 34.19072 136.16967 28219 ft 367 kts 234°
2026-05-05 19:03 34.15887 136.12145 28242 ft 366 kts 234°
2026-05-05 19:03 34.12719 136.07354 28236 ft 365 kts 234°
2026-05-05 19:04 34.09563 136.02577 28236 ft 363 kts 234°
2026-05-05 19:04 34.06404 135.97821 28243 ft 364 kts 234°
2026-05-05 19:05 34.03250 135.93080 28257 ft 360 kts 234°
2026-05-05 19:05 34.00113 135.88354 28272 ft 362 kts 234°
2026-05-05 19:06 33.96968 135.83612 28221 ft 362 kts 236°
2026-05-05 19:06 33.93819 135.78876 28236 ft 362 kts 234°
2026-05-05 19:07 33.90667 135.74155 28240 ft 361 kts 235°
2026-05-05 19:07 33.87533 135.69457 28234 ft 360 kts 234°
2026-05-05 19:08 33.84396 135.64765 28228 ft 361 kts 234°
2026-05-05 19:08 33.81241 135.60049 28245 ft 361 kts 234°
2026-05-05 19:09 33.78092 135.55347 28226 ft 361 kts 235°
2026-05-05 19:09 33.74931 135.50650 28202 ft 362 kts 234°
2026-05-05 19:10 33.71770 135.45947 28197 ft 361 kts 235°
2026-05-05 19:10 33.68615 135.41253 28199 ft 361 kts 234°
2026-05-05 19:11 33.65462 135.36575 28204 ft 360 kts 234°
2026-05-05 19:11 33.62312 135.31913 28208 ft 359 kts 234°
2026-05-05 19:12 33.59169 135.27267 28210 ft 359 kts 234°
2026-05-05 19:12 33.56033 135.22619 28213 ft 358 kts 234°
2026-05-05 19:13 33.52896 135.17980 28214 ft 358 kts 234°
2026-05-05 19:13 33.49760 135.13352 28213 ft 358 kts 234°
2026-05-05 19:14 33.46622 135.08730 28204 ft 358 kts 234°
2026-05-05 19:14 33.43476 135.04101 28190 ft 359 kts 234°
2026-05-05 19:15 33.40319 134.99472 28199 ft 359 kts 234°
2026-05-05 19:15 33.37164 134.94840 28209 ft 359 kts 234°
2026-05-05 19:16 33.34019 134.90219 28212 ft 358 kts 234°
2026-05-05 19:16 33.30880 134.85612 28207 ft 357 kts 234°
2026-05-05 19:17 33.27745 134.81010 28183 ft 357 kts 234°
2026-05-05 19:17 33.24599 134.76411 28181 ft 358 kts 234°
2026-05-05 19:18 33.21446 134.71808 28183 ft 358 kts 234°
2026-05-05 19:18 33.18290 134.67202 28156 ft 359 kts 233°
2026-05-05 19:19 33.15753 134.62088 28161 ft 358 kts 250°
2026-05-05 19:19 33.14352 134.56377 28190 ft 359 kts 252°
2026-05-05 19:20 33.12948 134.50675 28191 ft 358 kts 251°
2026-05-05 19:20 33.11539 134.44982 28192 ft 358 kts 251°
2026-05-05 19:21 33.10131 134.39291 28173 ft 358 kts 251°
2026-05-05 19:21 33.08720 134.33593 28179 ft 358 kts 251°
2026-05-05 19:22 33.07304 134.27893 28178 ft 359 kts 251°
2026-05-05 19:22 33.05893 134.22189 28207 ft 359 kts 252°
2026-05-05 19:23 33.04515 134.16487 28215 ft 357 kts 252°
2026-05-05 19:23 33.03143 134.10799 28176 ft 357 kts 252°
2026-05-05 19:24 33.01763 134.05104 28176 ft 358 kts 252°
2026-05-05 19:24 33.00375 133.99404 28205 ft 358 kts 252°
2026-05-05 19:25 32.98986 133.93722 28204 ft 357 kts 252°
2026-05-05 19:25 32.97601 133.88055 28200 ft 356 kts 252°
2026-05-05 19:26 32.96220 133.82385 28200 ft 357 kts 252°
2026-05-05 19:26 32.94826 133.76715 28197 ft 357 kts 251°
2026-05-05 19:27 32.93429 133.71050 28196 ft 356 kts 251°
2026-05-05 19:27 32.92032 133.65395 28195 ft 356 kts 251°
2026-05-05 19:28 32.90631 133.59740 28213 ft 356 kts 252°
2026-05-05 19:28 32.89233 133.54094 28171 ft 356 kts 251°
2026-05-05 19:29 32.87839 133.48446 28172 ft 356 kts 251°
2026-05-05 19:29 32.86436 133.42794 28201 ft 356 kts 252°
2026-05-05 19:30 32.85023 133.37159 28203 ft 355 kts 251°
2026-05-05 19:30 32.83610 133.31537 28197 ft 354 kts 251°
2026-05-05 19:31 32.82209 133.25933 28168 ft 354 kts 251°
2026-05-05 19:31 32.80807 133.20320 28186 ft 354 kts 251°
2026-05-05 19:32 32.79401 133.14722 28190 ft 353 kts 251°
2026-05-05 19:32 32.77995 133.09134 28186 ft 353 kts 251°
2026-05-05 19:33 32.76587 133.03553 28183 ft 353 kts 251°
2026-05-05 19:33 32.74888 132.98118 28184 ft 351 kts 242°
2026-05-05 19:34 32.72522 132.93050 28182 ft 351 kts 242°
2026-05-05 19:35 32.68987 132.85453 28171 ft 350 kts 242°
2026-05-05 19:35 32.66626 132.80401 28166 ft 350 kts 242°
2026-05-05 19:36 32.64269 132.75353 28165 ft 350 kts 242°
2026-05-05 19:36 32.61907 132.70302 28161 ft 350 kts 242°
2026-05-05 19:37 32.59549 132.65256 28161 ft 350 kts 242°
2026-05-05 19:37 32.57181 132.60219 28184 ft 350 kts 242°
2026-05-05 19:38 32.54805 132.55190 28148 ft 349 kts 242°
2026-05-05 19:38 32.52441 132.50163 28149 ft 349 kts 242°
2026-05-05 19:39 32.50076 132.45130 28154 ft 350 kts 242°
2026-05-05 19:39 32.48110 132.40946 28153 ft 350 kts 242°
2026-05-05 19:40 32.45741 132.35920 28178 ft 349 kts 242°
2026-05-05 19:40 32.43364 132.30911 28149 ft 349 kts 241°
2026-05-05 19:41 32.40992 132.25903 28148 ft 349 kts 242°
2026-05-05 19:41 32.38618 132.20892 28149 ft 349 kts 241°
2026-05-05 19:42 32.36239 132.15891 28169 ft 349 kts 242°
2026-05-05 19:42 32.33864 132.10892 28170 ft 348 kts 242°
2026-05-05 19:43 32.31489 132.05898 28139 ft 349 kts 241°
2026-05-05 19:43 32.29101 132.00908 28142 ft 349 kts 241°
2026-05-05 19:44 32.26711 131.95910 28168 ft 349 kts 241°
2026-05-05 19:44 32.24329 131.90919 28168 ft 349 kts 241°
2026-05-05 19:45 32.21944 131.85936 28126 ft 349 kts 241°
2026-05-05 19:45 32.19555 131.80944 28130 ft 350 kts 241°
2026-05-05 19:46 32.17157 131.75940 28165 ft 350 kts 241°
2026-05-05 19:46 32.14752 131.70936 28166 ft 350 kts 241°
2026-05-05 19:47 32.12344 131.65938 28165 ft 350 kts 241°
2026-05-05 19:47 32.09939 131.60947 28132 ft 350 kts 241°
2026-05-05 19:48 32.07523 131.55951 28156 ft 351 kts 241°
2026-05-05 19:48 32.05104 131.50952 28156 ft 351 kts 241°
2026-05-05 19:49 32.02689 131.45961 28151 ft 350 kts 241°
2026-05-05 19:49 32.00277 131.40974 28116 ft 350 kts 240°
2026-05-05 19:50 31.97857 131.35984 28114 ft 351 kts 240°
2026-05-05 19:50 31.95432 131.30991 28156 ft 351 kts 241°
2026-05-05 19:51 31.93008 131.26007 28159 ft 350 kts 241°
2026-05-05 19:51 31.90589 131.21052 28172 ft 348 kts 241°
2026-05-05 19:52 31.88162 131.16073 28139 ft 349 kts 240°
2026-05-05 19:52 31.85738 131.11115 28162 ft 350 kts 240°
2026-05-05 19:53 31.83312 131.06156 28157 ft 350 kts 240°
2026-05-05 19:53 31.80884 131.01196 28157 ft 350 kts 240°
2026-05-05 19:54 31.78456 130.96244 28152 ft 350 kts 240°
2026-05-05 19:54 31.76028 130.91293 28134 ft 350 kts 240°
2026-05-05 19:55 31.73592 130.86342 28141 ft 350 kts 240°
2026-05-05 19:55 31.71151 130.81382 28138 ft 351 kts 240°
2026-05-05 19:56 31.68705 130.76419 28130 ft 351 kts 240°
2026-05-05 19:56 31.66262 130.71462 28128 ft 351 kts 240°
2026-05-05 19:57 31.63813 130.66503 28096 ft 352 kts 239°
2026-05-05 19:57 31.61337 130.61519 28103 ft 355 kts 239°
2026-05-05 19:58 31.58858 130.56501 28106 ft 356 kts 239°
2026-05-05 19:58 31.56365 130.51470 28110 ft 357 kts 239°
2026-05-05 19:59 31.53859 130.46444 28130 ft 357 kts 239°
2026-05-05 19:59 31.51352 130.41419 28132 ft 357 kts 239°
2026-05-05 20:00 31.48858 130.36401 28124 ft 356 kts 239°
2026-05-05 20:00 31.46361 130.31390 28125 ft 356 kts 239°
2026-05-05 20:01 31.43862 130.26395 28123 ft 355 kts 239°
2026-05-05 20:01 31.41364 130.21405 28116 ft 355 kts 239°
2026-05-05 20:02 31.38864 130.16411 28110 ft 355 kts 239°
2026-05-05 20:02 31.36358 130.11413 28104 ft 356 kts 239°
2026-05-05 20:03 31.33852 130.06416 28103 ft 356 kts 239°
2026-05-05 20:03 31.31337 130.01418 28121 ft 356 kts 239°
2026-05-05 20:04 31.28799 129.96445 28080 ft 356 kts 235°
2026-05-05 20:04 31.25760 129.91842 28075 ft 359 kts 233°
2026-05-05 20:05 31.22671 129.87222 28081 ft 362 kts 233°
2026-05-05 20:05 31.19569 129.82566 28083 ft 364 kts 233°
2026-05-05 20:06 31.16455 129.77905 28115 ft 363 kts 233°
2026-05-05 20:06 31.13342 129.73261 28092 ft 363 kts 233°
2026-05-05 20:07 31.10225 129.68615 28091 ft 364 kts 233°
2026-05-05 20:07 31.07101 129.63963 28089 ft 364 kts 232°
2026-05-05 20:08 31.03975 129.59315 28091 ft 364 kts 232°
2026-05-05 20:08 31.00854 129.54672 28087 ft 363 kts 232°
2026-05-05 20:09 30.97731 129.50044 28078 ft 364 kts 232°
2026-05-05 20:09 30.94596 129.45409 28079 ft 364 kts 232°
2026-05-05 20:10 30.91459 129.40770 28079 ft 365 kts 232°
2026-05-05 20:10 30.88320 129.36127 28081 ft 365 kts 232°
2026-05-05 20:11 30.85179 129.31484 28080 ft 365 kts 232°
2026-05-05 20:11 30.82039 129.26847 28085 ft 365 kts 232°
2026-05-05 20:12 30.78892 129.22212 28086 ft 365 kts 232°
2026-05-05 20:12 30.75760 129.17576 28089 ft 365 kts 232°
2026-05-05 20:13 30.72690 129.12885 28049 ft 365 kts 232°
2026-05-05 20:13 30.69616 129.08182 28077 ft 365 kts 232°
2026-05-05 20:14 30.66536 129.03486 28078 ft 365 kts 232°
2026-05-05 20:14 30.63452 128.98796 28075 ft 365 kts 232°
2026-05-05 20:15 30.60363 128.94118 28078 ft 365 kts 232°
2026-05-05 20:15 30.57272 128.89442 28054 ft 366 kts 232°
2026-05-05 20:16 30.54174 128.84759 28084 ft 366 kts 232°
2026-05-05 20:16 30.51077 128.80080 28081 ft 365 kts 232°
2026-05-05 20:17 30.47985 128.75403 28084 ft 365 kts 232°
2026-05-05 20:17 30.44892 128.70737 28049 ft 365 kts 232°
2026-05-05 20:18 30.42297 128.66830 28053 ft 366 kts 232°
2026-05-05 20:18 30.39184 128.62159 28085 ft 366 kts 232°
2026-05-05 20:19 30.36076 128.57492 28088 ft 365 kts 232°
2026-05-05 20:19 30.32978 128.52834 28085 ft 365 kts 232°
2026-05-05 20:20 30.29879 128.48184 28052 ft 365 kts 231°
2026-05-05 20:20 30.26773 128.43534 28052 ft 366 kts 231°
2026-05-05 20:21 30.23652 128.38875 28055 ft 367 kts 231°
2026-05-05 20:21 30.20523 128.34201 28058 ft 368 kts 231°
2026-05-05 20:22 30.17393 128.29521 28061 ft 368 kts 231°
2026-05-05 20:22 30.14256 128.24842 28062 ft 368 kts 231°
2026-05-05 20:23 30.11112 128.20164 28063 ft 369 kts 231°
2026-05-05 20:23 30.07972 128.15502 28106 ft 367 kts 231°
2026-05-05 20:24 30.04858 128.10871 28108 ft 364 kts 231°
2026-05-05 20:24 30.01758 128.06269 28103 ft 362 kts 231°
2026-05-05 20:25 29.98662 128.01685 28045 ft 363 kts 231°
2026-05-05 20:25 29.95549 127.97075 28050 ft 366 kts 231°
2026-05-05 20:26 29.92414 127.92442 28090 ft 366 kts 231°
2026-05-05 20:26 29.89281 127.87821 28095 ft 365 kts 231°
2026-05-05 20:27 29.86160 127.83225 28096 ft 364 kts 231°
2026-05-05 20:27 29.82909 127.78756 28052 ft 364 kts 228°
2026-05-05 20:28 29.79568 127.74352 28050 ft 366 kts 228°
2026-05-05 20:28 29.76224 127.69914 28092 ft 367 kts 229°
2026-05-05 20:29 29.72911 127.65470 28102 ft 365 kts 229°
2026-05-05 20:29 29.69615 127.61052 28060 ft 363 kts 229°
2026-05-05 20:30 29.66322 127.56639 28043 ft 365 kts 229°
2026-05-05 20:30 29.62999 127.52196 28042 ft 368 kts 229°
2026-05-05 20:31 29.59648 127.47735 28047 ft 370 kts 229°
2026-05-05 20:31 29.56353 127.43219 28103 ft 368 kts 231°
2026-05-05 20:32 29.53210 127.38602 28060 ft 366 kts 231°
2026-05-05 20:32 29.50074 127.33981 28047 ft 368 kts 231°
2026-05-05 20:33 29.46901 127.29369 28045 ft 369 kts 230°
2026-05-05 20:33 29.43699 127.24757 28049 ft 370 kts 230°
2026-05-05 20:34 29.40500 127.20150 28104 ft 368 kts 231°
2026-05-05 20:34 29.37329 127.15580 28051 ft 365 kts 230°
2026-05-05 20:35 29.34157 127.11025 28042 ft 366 kts 230°
2026-05-05 20:35 29.30972 127.06448 28040 ft 368 kts 230°
2026-05-05 20:36 29.27776 127.01852 28046 ft 369 kts 230°
2026-05-05 20:36 29.24581 126.97253 28085 ft 368 kts 230°
2026-05-05 20:37 29.21391 126.92691 28065 ft 366 kts 230°
2026-05-05 20:37 29.18215 126.88154 28062 ft 365 kts 230°
2026-05-05 20:38 29.15046 126.83623 28061 ft 365 kts 230°
2026-05-05 20:38 29.11872 126.79093 28067 ft 365 kts 230°
2026-05-05 20:39 29.08699 126.74564 28087 ft 365 kts 230°
2026-05-05 20:39 29.05532 126.70056 28045 ft 363 kts 230°
2026-05-05 20:40 29.02369 126.65552 28041 ft 364 kts 230°
2026-05-05 20:40 28.99183 126.61032 28039 ft 366 kts 230°
2026-05-05 20:41 28.95983 126.56508 28045 ft 367 kts 229°
2026-05-05 20:41 28.92701 126.52048 28055 ft 367 kts 228°
2026-05-05 20:42 28.89387 126.47625 28058 ft 366 kts 228°
2026-05-05 20:42 28.86080 126.43196 28057 ft 367 kts 228°
2026-05-05 20:43 28.82775 126.38756 28051 ft 368 kts 228°
2026-05-05 20:43 28.79486 126.34318 28053 ft 368 kts 228°
2026-05-05 20:44 28.76175 126.29867 28057 ft 368 kts 228°
2026-05-05 20:44 28.72863 126.25416 28022 ft 369 kts 228°
2026-05-05 20:45 28.67812 126.18651 28095 ft 374 kts 228°
2026-05-05 20:45 28.64446 126.14146 28093 ft 373 kts 228°
2026-05-05 20:46 28.61133 126.09612 28090 ft 372 kts 229°
2026-05-05 20:46 28.57905 126.05023 28092 ft 371 kts 229°
2026-05-05 20:47 28.54686 126.00430 28082 ft 371 kts 229°
2026-05-05 20:47 28.51456 125.95861 28079 ft 370 kts 229°
2026-05-05 20:48 28.48214 125.91307 28071 ft 370 kts 229°
2026-05-05 20:48 28.44972 125.86757 28061 ft 370 kts 229°
2026-05-05 20:49 28.41733 125.82203 28071 ft 371 kts 229°
2026-05-05 20:49 28.38494 125.77644 28024 ft 371 kts 229°
2026-05-05 20:50 28.35764 125.73827 28071 ft 372 kts 229°
2026-05-05 20:50 28.31988 125.68543 28079 ft 370 kts 229°
2026-05-05 20:51 28.28756 125.64017 28071 ft 369 kts 229°
2026-05-05 20:51 28.25526 125.59514 28073 ft 368 kts 229°
2026-05-05 20:52 28.22295 125.55016 28018 ft 368 kts 229°
2026-05-05 20:52 28.19056 125.50504 28029 ft 370 kts 229°
2026-05-05 20:53 28.15804 125.45973 28065 ft 370 kts 229°
2026-05-05 20:53 28.12554 125.41456 28063 ft 369 kts 229°
2026-05-05 20:54 28.09315 125.36954 28063 ft 368 kts 229°
2026-05-05 20:54 28.06058 125.32427 28064 ft 368 kts 229°
2026-05-05 20:55 28.02832 125.27954 28015 ft 371 kts 229°
2026-05-05 20:55 27.99554 125.23416 28058 ft 373 kts 229°
2026-05-05 20:56 27.96803 125.19609 28067 ft 373 kts 229°
2026-05-05 20:56 27.93525 125.15079 28067 ft 372 kts 229°
2026-05-05 20:57 27.90247 125.10570 28061 ft 371 kts 229°
2026-05-05 20:57 27.86982 125.06067 28029 ft 370 kts 229°
2026-05-05 20:58 27.83711 125.01559 28027 ft 371 kts 229°
2026-05-05 20:58 27.80435 124.97053 28056 ft 371 kts 229°
2026-05-05 20:59 27.77159 124.92540 28056 ft 371 kts 229°
2026-05-05 20:59 27.73884 124.88039 28051 ft 371 kts 229°
2026-05-05 21:00 27.70610 124.83541 28010 ft 371 kts 229°
2026-05-05 21:00 27.67331 124.79051 28021 ft 371 kts 229°
2026-05-05 21:01 27.64039 124.74557 28016 ft 372 kts 229°
2026-05-05 21:01 27.60744 124.70052 28037 ft 373 kts 229°
2026-05-05 21:02 27.57439 124.65535 28033 ft 374 kts 229°
2026-05-05 21:02 27.54132 124.61013 28033 ft 374 kts 229°
2026-05-05 21:03 27.50804 124.56464 28018 ft 379 kts 230°
2026-05-05 21:03 27.47447 124.51882 28028 ft 380 kts 229°
2026-05-05 21:04 27.44080 124.47298 28048 ft 380 kts 229°
2026-05-05 21:04 27.40715 124.42707 28025 ft 381 kts 229°
2026-05-05 21:05 27.37336 124.38103 28024 ft 382 kts 229°
2026-05-05 21:05 27.33946 124.33502 28009 ft 382 kts 229°
2026-05-05 21:06 27.30551 124.28904 28018 ft 382 kts 229°
2026-05-05 21:06 27.27157 124.24309 28016 ft 382 kts 229°
2026-05-05 21:07 27.23769 124.19715 28045 ft 381 kts 229°
2026-05-05 21:07 27.20388 124.15136 28043 ft 380 kts 229°
2026-05-05 21:08 27.17008 124.10572 28009 ft 380 kts 230°
2026-05-05 21:08 27.13625 124.06016 28010 ft 380 kts 230°
2026-05-05 21:09 27.10243 124.01455 28013 ft 380 kts 230°
2026-05-05 21:09 27.06851 123.96904 28015 ft 380 kts 229°
2026-05-05 21:10 27.03437 123.92373 28049 ft 380 kts 229°
2026-05-05 21:10 27.00026 123.87862 28055 ft 378 kts 229°
2026-05-05 21:11 26.98332 123.85610 27998 ft 378 kts 230°
2026-05-05 21:11 26.96636 123.83353 27999 ft 378 kts 230°
2026-05-05 21:11 26.94933 123.81096 27998 ft 379 kts 229°
2026-05-05 21:11 26.93228 123.78839 27999 ft 380 kts 229°
2026-05-05 21:12 26.89804 123.74311 27998 ft 381 kts 229°
2026-05-05 21:12 26.88087 123.72043 27997 ft 382 kts 229°
2026-05-05 21:12 26.86372 123.69776 28002 ft 382 kts 229°
2026-05-05 21:13 26.82939 123.65232 28021 ft 382 kts 229°
2026-05-05 21:13 26.79501 123.60693 28014 ft 382 kts 229°
2026-05-05 21:14 26.76036 123.56127 28012 ft 382 kts 229°
2026-05-05 21:14 26.72593 123.51589 28011 ft 382 kts 229°
2026-05-05 21:15 26.69144 123.47058 28011 ft 382 kts 229°
2026-05-05 21:15 26.65694 123.42531 28014 ft 383 kts 229°
2026-05-05 21:16 26.62247 123.37999 28014 ft 382 kts 229°
2026-05-05 21:16 26.60526 123.35733 27973 ft 382 kts 229°
2026-05-05 21:16 26.58803 123.33469 27980 ft 383 kts 229°
2026-05-05 21:17 26.57073 123.31206 27982 ft 383 kts 229°
2026-05-05 21:17 26.55343 123.28946 27978 ft 383 kts 229°
2026-05-05 21:17 26.53611 123.26681 27985 ft 383 kts 229°
2026-05-05 21:17 26.51879 123.24414 27990 ft 383 kts 229°
2026-05-05 21:18 26.48416 123.19887 27999 ft 383 kts 229°
2026-05-05 21:18 26.44953 123.15364 28029 ft 383 kts 229°
2026-05-05 21:19 26.41486 123.10852 27965 ft 383 kts 230°
2026-05-05 21:19 26.39754 123.08599 27977 ft 383 kts 230°
2026-05-05 21:19 26.38019 123.06340 27973 ft 383 kts 230°
2026-05-05 21:20 26.36288 123.04078 27978 ft 384 kts 230°
2026-05-05 21:20 26.34551 123.01812 27975 ft 385 kts 230°
2026-05-05 21:20 26.32811 122.99546 27980 ft 385 kts 230°
2026-05-05 21:20 26.31068 122.97280 27978 ft 385 kts 230°
2026-05-05 21:21 26.29323 122.95012 27979 ft 385 kts 230°
2026-05-05 21:21 26.27578 122.92745 27995 ft 385 kts 230°
2026-05-05 21:21 26.25834 122.90481 27995 ft 385 kts 230°
2026-05-05 21:21 26.24087 122.88214 28031 ft 385 kts 230°
2026-05-05 21:22 26.22341 122.85950 27977 ft 385 kts 230°
2026-05-05 21:22 26.20592 122.83688 27973 ft 385 kts 230°
2026-05-05 21:22 26.18842 122.81426 27989 ft 386 kts 230°
2026-05-05 21:22 26.17091 122.79160 27991 ft 386 kts 230°
2026-05-05 21:23 26.15339 122.76895 27983 ft 387 kts 230°
2026-05-05 21:23 26.13589 122.74622 27985 ft 387 kts 230°
2026-05-05 21:23 26.11836 122.72351 27992 ft 387 kts 230°
2026-05-05 21:23 26.10080 122.70078 27994 ft 387 kts 230°
2026-05-05 21:24 26.08324 122.67812 27997 ft 387 kts 230°
2026-05-05 21:24 26.06570 122.65549 27993 ft 387 kts 230°
2026-05-05 21:24 26.04814 122.63279 27995 ft 387 kts 230°
2026-05-05 21:24 26.03057 122.61011 28001 ft 387 kts 231°
2026-05-05 21:25 25.99551 122.56488 28001 ft 386 kts 231°
2026-05-05 21:25 25.96040 122.51975 28004 ft 386 kts 231°
2026-05-05 21:26 25.92534 122.47472 28010 ft 385 kts 231°
2026-05-05 21:26 25.89033 122.42970 28002 ft 385 kts 231°
2026-05-05 21:27 25.85531 122.38473 28004 ft 385 kts 231°
2026-05-05 21:27 25.83780 122.36226 27952 ft 385 kts 232°
2026-05-05 21:27 25.82030 122.33982 27987 ft 385 kts 231°
2026-05-05 21:28 25.80277 122.31737 27982 ft 385 kts 231°
2026-05-05 21:28 25.78520 122.29487 27981 ft 386 kts 231°
2026-05-05 21:28 25.76759 122.27234 27987 ft 386 kts 231°
2026-05-05 21:28 25.74998 122.24982 27980 ft 386 kts 231°
2026-05-05 21:29 25.73239 122.22730 27981 ft 387 kts 231°
2026-05-05 21:29 25.71477 122.20471 27982 ft 387 kts 231°
2026-05-05 21:29 25.69717 122.18216 27986 ft 387 kts 231°
2026-05-05 21:29 25.67952 122.15961 27980 ft 387 kts 231°
2026-05-05 21:30 25.66183 122.13708 27983 ft 388 kts 231°
2026-05-05 21:30 25.64412 122.11453 27984 ft 388 kts 231°
2026-05-05 21:30 25.62640 122.09197 27968 ft 389 kts 231°
2026-05-05 21:30 25.60861 122.06928 27991 ft 391 kts 232°
2026-05-05 21:31 25.59078 122.04648 27991 ft 392 kts 232°
2026-05-05 21:31 25.57296 122.02365 27996 ft 392 kts 232°
2026-05-05 21:31 25.55515 122.00084 27988 ft 392 kts 232°
2026-05-05 21:31 25.53730 121.97804 27993 ft 392 kts 232°
2026-05-05 21:32 25.51941 121.95527 27989 ft 392 kts 232°
2026-05-05 21:32 25.50148 121.93254 27989 ft 392 kts 232°
2026-05-05 21:32 25.48356 121.90984 27989 ft 392 kts 232°
2026-05-05 21:32 25.46560 121.88714 27989 ft 392 kts 232°
2026-05-05 21:33 25.44767 121.86447 27988 ft 392 kts 232°
2026-05-05 21:33 25.42977 121.84177 27951 ft 392 kts 232°
2026-05-05 21:33 25.41185 121.81905 27960 ft 392 kts 232°
2026-05-05 21:33 25.39390 121.79631 27976 ft 393 kts 233°
2026-05-05 21:34 25.38196 121.78122 27973 ft 393 kts 232°
2026-05-05 21:34 25.36394 121.75845 27967 ft 394 kts 232°
2026-05-05 21:34 25.34590 121.73562 27974 ft 394 kts 232°
2026-05-05 21:34 25.32782 121.71279 27975 ft 395 kts 232°
2026-05-05 21:35 25.30946 121.68965 27967 ft 395 kts 232°
2026-05-05 21:35 25.29139 121.66680 27969 ft 395 kts 232°
2026-05-05 21:35 25.27351 121.64417 27970 ft 396 kts 232°
2026-05-05 21:35 25.25541 121.62128 27957 ft 395 kts 232°
2026-05-05 21:36 25.23707 121.59808 27969 ft 396 kts 232°
2026-05-05 21:36 25.21918 121.57549 27937 ft 397 kts 232°
2026-05-05 21:36 25.20095 121.55256 27943 ft 398 kts 232°
2026-05-05 21:36 25.18271 121.52960 27952 ft 398 kts 232°
2026-05-05 21:37 25.16449 121.50657 27971 ft 398 kts 233°
2026-05-05 21:37 25.14626 121.48305 27971 ft 397 kts 234°
2026-05-05 21:37 25.12841 121.45973 27968 ft 398 kts 234°
2026-05-05 21:37 25.11057 121.43637 27971 ft 398 kts 234°
2026-05-05 21:38 25.09268 121.41305 27971 ft 398 kts 234°
2026-05-05 21:38 25.07499 121.39008 27974 ft 398 kts 233°
2026-05-05 21:38 25.05705 121.36681 27976 ft 398 kts 233°
2026-05-05 21:38 25.03889 121.34332 27976 ft 398 kts 233°
2026-05-05 21:39 25.02092 121.32011 27944 ft 398 kts 233°
2026-05-05 21:39 25.00294 121.29691 27947 ft 398 kts 233°
2026-05-05 21:39 24.98494 121.27370 27950 ft 399 kts 233°
2026-05-05 21:39 24.96691 121.25043 27954 ft 399 kts 234°
2026-05-05 21:40 24.94892 121.22719 27962 ft 399 kts 234°
2026-05-05 21:40 24.93089 121.20389 27965 ft 400 kts 234°
2026-05-05 21:40 24.91284 121.18059 27966 ft 400 kts 234°
2026-05-05 21:40 24.89479 121.15729 27968 ft 400 kts 234°
2026-05-05 21:41 24.87669 121.13395 27972 ft 400 kts 234°
2026-05-05 21:41 24.85860 121.11065 27983 ft 401 kts 234°
2026-05-05 21:41 24.84048 121.08733 27997 ft 401 kts 234°
2026-05-05 21:41 24.82237 121.06403 27992 ft 400 kts 234°
2026-05-05 21:42 24.80428 121.04076 27991 ft 400 kts 234°
2026-05-05 21:42 24.78618 121.01749 27990 ft 400 kts 234°
2026-05-05 21:42 24.76809 120.99423 27998 ft 400 kts 234°
2026-05-05 21:42 24.75004 120.97099 27997 ft 400 kts 234°
2026-05-05 21:43 24.73195 120.94771 27994 ft 400 kts 234°
2026-05-05 21:43 24.71391 120.92453 27988 ft 400 kts 234°
2026-05-05 21:43 24.69580 120.90124 27985 ft 401 kts 234°
2026-05-05 21:43 24.67764 120.87796 27985 ft 401 kts 234°
2026-05-05 21:44 24.65947 120.85471 27985 ft 401 kts 234°
2026-05-05 21:44 24.64128 120.83143 27986 ft 402 kts 234°
2026-05-05 21:44 24.62306 120.80814 27987 ft 402 kts 234°
2026-05-05 21:44 24.60485 120.78483 27966 ft 402 kts 234°
2026-05-05 21:45 24.58664 120.76153 27975 ft 402 kts 234°
2026-05-05 21:45 24.56841 120.73818 27975 ft 403 kts 234°
2026-05-05 21:45 24.54999 120.71497 27984 ft 404 kts 233°
2026-05-05 21:45 24.53087 120.69231 27991 ft 405 kts 231°
2026-05-05 21:46 24.49142 120.64802 28005 ft 406 kts 230°
2026-05-05 21:46 24.45184 120.60387 28011 ft 406 kts 231°
2026-05-05 21:47 24.41261 120.55943 28019 ft 406 kts 231°
2026-05-05 21:47 24.39305 120.53709 27997 ft 406 kts 231°
2026-05-05 21:47 24.37347 120.51475 28000 ft 406 kts 231°
2026-05-05 21:48 24.33426 120.47002 28008 ft 407 kts 231°
2026-05-05 21:48 24.29501 120.42536 28011 ft 407 kts 231°
2026-05-05 21:49 24.25570 120.38075 28007 ft 407 kts 231°
2026-05-05 21:49 24.21633 120.33615 27999 ft 407 kts 231°
2026-05-05 21:50 24.19663 120.31377 27997 ft 408 kts 231°
2026-05-05 21:50 24.17695 120.29141 27968 ft 408 kts 232°
2026-05-05 21:50 24.15723 120.26905 27965 ft 408 kts 231°
2026-05-05 21:50 24.13746 120.24669 27965 ft 409 kts 231°
2026-05-05 21:51 24.11765 120.22431 27966 ft 410 kts 231°
2026-05-05 21:51 24.09780 120.20188 27970 ft 410 kts 231°
2026-05-05 21:51 24.07796 120.17943 27988 ft 410 kts 231°
2026-05-05 21:51 24.05816 120.15700 27978 ft 410 kts 231°
2026-05-05 21:52 24.01842 120.11215 27973 ft 410 kts 232°
2026-05-05 21:52 23.99855 120.08974 27976 ft 410 kts 232°
2026-05-05 21:52 23.97866 120.06732 27969 ft 411 kts 232°
2026-05-05 21:53 23.95877 120.04491 27973 ft 411 kts 232°
2026-05-05 21:53 23.93885 120.02244 27946 ft 411 kts 232°
2026-05-05 21:53 23.91892 119.99996 27951 ft 412 kts 232°
2026-05-05 21:53 23.89893 119.97743 27960 ft 413 kts 232°
2026-05-05 21:54 23.87894 119.95491 27965 ft 413 kts 232°
2026-05-05 21:54 23.85891 119.93239 27961 ft 414 kts 231°
2026-05-05 21:54 23.83885 119.90986 27972 ft 414 kts 231°
2026-05-05 21:54 23.81880 119.88733 27968 ft 414 kts 231°
2026-05-05 21:55 23.79871 119.86479 27967 ft 414 kts 231°
2026-05-05 21:55 23.77861 119.84226 27978 ft 414 kts 231°
2026-05-05 21:55 23.75852 119.81972 27984 ft 414 kts 232°
2026-05-05 21:55 23.73843 119.79716 27980 ft 415 kts 232°
2026-05-05 21:56 23.71831 119.77459 27948 ft 415 kts 232°
2026-05-05 21:56 23.69813 119.75199 27959 ft 416 kts 232°
2026-05-05 21:56 23.67794 119.72941 27966 ft 417 kts 231°
2026-05-05 21:56 23.65762 119.70673 27969 ft 418 kts 231°
2026-05-05 21:57 23.63730 119.68407 27978 ft 418 kts 231°
2026-05-05 21:57 23.61697 119.66137 27981 ft 418 kts 231°
2026-05-05 21:57 23.59730 119.63821 27984 ft 415 kts 237°
2026-05-05 21:57 23.58110 119.61253 27983 ft 410 kts 243°
2026-05-05 21:58 23.56596 119.58618 27987 ft 410 kts 243°
2026-05-05 21:58 23.55078 119.55986 27987 ft 410 kts 243°
2026-05-05 21:58 23.53557 119.53354 27986 ft 411 kts 243°
2026-05-05 21:58 23.52030 119.50723 27978 ft 411 kts 243°
2026-05-05 21:59 23.50499 119.48092 27955 ft 412 kts 243°
2026-05-05 21:59 23.48964 119.45453 27958 ft 413 kts 243°
2026-05-05 21:59 23.47428 119.42810 27960 ft 413 kts 243°
2026-05-05 21:59 23.45890 119.40162 27959 ft 414 kts 243°
2026-05-05 22:00 23.44350 119.37511 27958 ft 415 kts 243°
2026-05-05 22:00 23.42807 119.34854 27963 ft 415 kts 243°
2026-05-05 22:00 23.41265 119.32199 27964 ft 415 kts 243°
2026-05-05 22:00 23.39720 119.29544 27965 ft 416 kts 243°
2026-05-05 22:01 23.38173 119.26886 27962 ft 416 kts 243°
2026-05-05 22:01 23.36624 119.24229 27969 ft 416 kts 243°
2026-05-05 22:01 23.35073 119.21570 27966 ft 416 kts 243°
2026-05-05 22:01 23.33522 119.18910 27967 ft 416 kts 243°
2026-05-05 22:02 23.31971 119.16251 27967 ft 417 kts 243°
2026-05-05 22:02 23.30417 119.13590 27950 ft 417 kts 243°
2026-05-05 22:02 23.28858 119.10925 27958 ft 417 kts 243°
2026-05-05 22:02 23.27300 119.08263 27960 ft 418 kts 243°
2026-05-05 22:03 23.25738 119.05597 27962 ft 418 kts 243°
2026-05-05 22:03 23.24174 119.02930 27963 ft 418 kts 243°
2026-05-05 22:03 23.22609 119.00259 27967 ft 419 kts 243°
2026-05-05 22:03 23.21048 118.97590 27965 ft 419 kts 243°
2026-05-05 22:04 23.19484 118.94918 27965 ft 419 kts 243°
2026-05-05 22:04 23.17919 118.92245 27969 ft 419 kts 243°
2026-05-05 22:04 23.16352 118.89572 27968 ft 420 kts 243°
2026-05-05 22:04 23.14764 118.86861 27969 ft 420 kts 243°
2026-05-05 22:05 23.13196 118.84185 27966 ft 420 kts 243°
2026-05-05 22:05 23.11625 118.81505 27973 ft 420 kts 243°
2026-05-05 22:05 23.10072 118.78862 27973 ft 421 kts 243°
2026-05-05 22:05 23.08477 118.76151 27956 ft 421 kts 242°
2026-05-05 22:06 23.06898 118.73473 27960 ft 421 kts 242°
2026-05-05 22:06 23.05313 118.70793 27960 ft 422 kts 242°
2026-05-05 22:06 23.03731 118.68114 27960 ft 422 kts 242°
2026-05-05 22:06 23.02148 118.65429 27964 ft 422 kts 242°
2026-05-05 22:07 23.00567 118.62741 27970 ft 423 kts 242°
2026-05-05 22:07 22.98986 118.60053 27963 ft 423 kts 242°
2026-05-05 22:07 22.97398 118.57364 27973 ft 423 kts 242°
2026-05-05 22:07 22.95809 118.54677 27968 ft 423 kts 242°
2026-05-05 22:08 22.94216 118.51989 27972 ft 423 kts 242°
2026-05-05 22:08 22.92621 118.49306 27975 ft 423 kts 242°
2026-05-05 22:08 22.91022 118.46624 27975 ft 423 kts 242°
2026-05-05 22:08 22.89421 118.43941 27978 ft 424 kts 242°
2026-05-05 22:09 22.87824 118.41261 27963 ft 423 kts 242°
2026-05-05 22:09 22.86226 118.38576 27964 ft 424 kts 242°
2026-05-05 22:09 22.84626 118.35892 27962 ft 424 kts 242°
2026-05-05 22:09 22.83027 118.33211 27963 ft 424 kts 242°
2026-05-05 22:10 22.81425 118.30523 27962 ft 424 kts 242°
2026-05-05 22:10 22.79825 118.27839 27968 ft 425 kts 242°
2026-05-05 22:10 22.78219 118.25150 27967 ft 425 kts 242°
2026-05-05 22:10 22.76613 118.22465 27967 ft 425 kts 242°
2026-05-05 22:11 22.75002 118.19781 27968 ft 425 kts 242°
2026-05-05 22:11 22.73392 118.17095 27970 ft 425 kts 242°
2026-05-05 22:11 22.72327 118.15315 27971 ft 425 kts 242°
2026-05-05 22:11 22.70722 118.12624 27967 ft 425 kts 242°
2026-05-05 22:12 22.69118 118.09937 27975 ft 425 kts 242°
2026-05-05 22:12 22.67512 118.07248 27972 ft 425 kts 242°
2026-05-05 22:12 22.65904 118.04561 27975 ft 425 kts 242°
2026-05-05 22:12 22.64291 118.01876 27974 ft 425 kts 241°
2026-05-05 22:13 22.62673 117.99194 27976 ft 426 kts 241°
2026-05-05 22:13 22.61057 117.96510 27975 ft 426 kts 241°
2026-05-05 22:13 22.59444 117.93827 27973 ft 426 kts 242°
2026-05-05 22:13 22.57836 117.91138 27971 ft 426 kts 242°
2026-05-05 22:14 22.56236 117.88447 27976 ft 425 kts 242°
2026-05-05 22:14 22.54640 117.85751 27974 ft 425 kts 242°
2026-05-05 22:14 22.53048 117.83052 27973 ft 425 kts 242°
2026-05-05 22:14 22.51452 117.80355 27976 ft 425 kts 242°
2026-05-05 22:15 22.49857 117.77663 27973 ft 425 kts 242°
2026-05-05 22:15 22.48256 117.74970 27974 ft 426 kts 242°
2026-05-05 22:15 22.46654 117.72278 27975 ft 426 kts 242°
2026-05-05 22:15 22.45054 117.69589 27960 ft 425 kts 242°
2026-05-05 22:16 22.43453 117.66905 27966 ft 425 kts 242°
2026-05-05 22:16 22.41848 117.64219 27971 ft 425 kts 242°
2026-05-05 22:16 22.40241 117.61536 27974 ft 425 kts 242°
2026-05-05 22:16 22.38635 117.58858 27979 ft 425 kts 242°
2026-05-05 22:17 22.37029 117.56181 27979 ft 425 kts 242°
2026-05-05 22:17 22.35445 117.53493 27973 ft 423 kts 245°
2026-05-05 22:17 22.34219 117.50639 27973 ft 417 kts 255°
2026-05-05 22:17 22.33487 117.47635 27974 ft 412 kts 264°
2026-05-05 22:18 22.33244 117.44568 27973 ft 408 kts 272°
2026-05-05 22:18 22.33204 117.41500 27971 ft 409 kts 272°
2026-05-05 22:18 22.33154 117.38431 27971 ft 409 kts 271°
2026-05-05 22:18 22.33098 117.35360 27971 ft 409 kts 271°
2026-05-05 22:19 22.33038 117.32282 27977 ft 410 kts 271°
2026-05-05 22:19 22.32980 117.29206 27977 ft 410 kts 271°
2026-05-05 22:19 22.32923 117.26129 27978 ft 410 kts 271°
2026-05-05 22:19 22.32866 117.23054 27978 ft 410 kts 271°
2026-05-05 22:20 22.32810 117.19978 27978 ft 410 kts 271°
2026-05-05 22:20 22.32753 117.16897 27979 ft 410 kts 271°
2026-05-05 22:20 22.32695 117.13819 27977 ft 410 kts 271°
2026-05-05 22:20 22.32635 117.10738 27978 ft 410 kts 271°
2026-05-05 22:21 22.32574 117.07654 27975 ft 411 kts 271°
2026-05-05 22:21 22.32512 117.04574 27976 ft 411 kts 271°
2026-05-05 22:21 22.32450 117.01491 27975 ft 411 kts 271°
2026-05-05 22:21 22.32387 116.98409 27977 ft 411 kts 271°
2026-05-05 22:22 22.32321 116.95322 27978 ft 411 kts 271°
2026-05-05 22:22 22.32257 116.92238 27979 ft 411 kts 271°
2026-05-05 22:22 22.32193 116.89154 27980 ft 411 kts 271°
2026-05-05 22:22 22.32129 116.86068 27977 ft 411 kts 271°
2026-05-05 22:23 22.32064 116.82981 27978 ft 411 kts 271°
2026-05-05 22:23 22.31995 116.79895 27968 ft 411 kts 271°
2026-05-05 22:23 22.31928 116.76812 27973 ft 411 kts 271°
2026-05-05 22:23 22.31861 116.73729 27973 ft 411 kts 271°
2026-05-05 22:24 22.31795 116.70642 27980 ft 411 kts 271°
2026-05-05 22:24 22.31729 116.67555 27982 ft 411 kts 271°
2026-05-05 22:24 22.31664 116.64471 27985 ft 411 kts 271°
2026-05-05 22:24 22.31595 116.61387 27987 ft 411 kts 271°
2026-05-05 22:25 22.31526 116.58300 27992 ft 411 kts 271°
2026-05-05 22:25 22.31458 116.55213 27989 ft 411 kts 271°
2026-05-05 22:25 22.31387 116.52128 27986 ft 411 kts 271°
2026-05-05 22:25 22.31315 116.49039 27983 ft 411 kts 271°
2026-05-05 22:26 22.31241 116.45953 27980 ft 412 kts 271°
2026-05-05 22:26 22.31169 116.42861 27982 ft 412 kts 271°
2026-05-05 22:26 22.31097 116.39765 27984 ft 412 kts 271°
2026-05-05 22:26 22.31019 116.36675 27986 ft 413 kts 271°
2026-05-05 22:27 22.30940 116.33577 27991 ft 413 kts 271°
2026-05-05 22:27 22.30861 116.30476 27994 ft 413 kts 271°
2026-05-05 22:27 22.30784 116.27381 27995 ft 413 kts 271°
2026-05-05 22:27 22.30707 116.24285 27989 ft 413 kts 271°
2026-05-05 22:28 22.30630 116.21185 27984 ft 413 kts 271°
2026-05-05 22:28 22.30552 116.18087 27983 ft 413 kts 271°
2026-05-05 22:28 22.30470 116.14987 27982 ft 413 kts 271°
2026-05-05 22:28 22.30387 116.11883 27985 ft 413 kts 271°
2026-05-05 22:29 22.30305 116.08786 27984 ft 413 kts 271°
2026-05-05 22:29 22.30223 116.05641 27984 ft 413 kts 271°
2026-05-05 22:29 22.30146 116.02543 27984 ft 413 kts 271°
2026-05-05 22:29 22.30071 115.99445 27985 ft 413 kts 271°
2026-05-05 22:30 22.29995 115.96340 27986 ft 413 kts 271°
2026-05-05 22:30 22.29914 115.93237 27984 ft 413 kts 271°
2026-05-05 22:30 22.29828 115.90137 27977 ft 413 kts 271°
2026-05-05 22:30 22.29740 115.87035 27975 ft 414 kts 271°
2026-05-05 22:31 22.29650 115.83927 27980 ft 416 kts 271°
2026-05-05 22:31 22.29565 115.80775 27990 ft 424 kts 271°
2026-05-05 22:31 22.29483 115.77571 27986 ft 430 kts 271°
2026-05-05 22:31 22.29401 115.74335 27986 ft 432 kts 271°
2026-05-05 22:32 22.29316 115.71100 27978 ft 427 kts 271°
2026-05-05 22:32 22.29229 115.68002 27673 ft 401 kts 271°
2026-05-05 22:32 22.29145 115.65048 26913 ft 388 kts 271°
2026-05-05 22:32 22.29065 115.62161 26012 ft 383 kts 270°
2026-05-05 22:33 22.28989 115.59305 25122 ft 379 kts 270°
2026-05-05 22:33 22.28915 115.56475 24250 ft 375 kts 270°
2026-05-05 22:33 22.28840 115.53673 23361 ft 372 kts 269°
2026-05-05 22:33 22.28763 115.50844 22557 ft 379 kts 269°
2026-05-05 22:34 22.28681 115.48033 22305 ft 371 kts 269°
2026-05-05 22:34 22.28598 115.45264 21890 ft 367 kts 269°
2026-05-05 22:34 22.28516 115.42517 21459 ft 365 kts 269°
2026-05-05 22:34 22.28441 115.39794 21023 ft 362 kts 269°
2026-05-05 22:35 22.28366 115.37087 20593 ft 359 kts 269°
2026-05-05 22:35 22.28290 115.34404 20167 ft 357 kts 269°
2026-05-05 22:35 22.28214 115.31741 19720 ft 354 kts 269°
2026-05-05 22:35 22.28135 115.29094 19293 ft 352 kts 269°
2026-05-05 22:36 22.28055 115.26461 18872 ft 349 kts 269°
2026-05-05 22:36 22.27972 115.23848 18446 ft 347 kts 268°
2026-05-05 22:36 22.27893 115.21252 17993 ft 345 kts 268°
2026-05-05 22:36 22.27815 115.18673 17562 ft 342 kts 268°
2026-05-05 22:37 22.27736 115.16121 17143 ft 338 kts 268°
2026-05-05 22:37 22.27659 115.13603 16733 ft 334 kts 268°
2026-05-05 22:37 22.27579 115.11114 16332 ft 330 kts 268°
2026-05-05 22:37 22.27499 115.08651 15934 ft 326 kts 268°
2026-05-05 22:38 22.27420 115.06218 15540 ft 323 kts 268°
2026-05-05 22:38 22.27343 115.03803 15150 ft 320 kts 267°
2026-05-05 22:38 22.27267 115.01414 14760 ft 317 kts 268°
2026-05-05 22:38 22.27190 114.99043 14377 ft 315 kts 268°
2026-05-05 22:39 22.27116 114.96688 13999 ft 313 kts 267°
2026-05-05 22:39 22.27044 114.94353 13602 ft 310 kts 267°
2026-05-05 22:39 22.26972 114.92035 13210 ft 307 kts 267°
2026-05-05 22:39 22.26895 114.89742 12834 ft 304 kts 267°
2026-05-05 22:40 22.26818 114.87472 12469 ft 301 kts 267°
2026-05-05 22:40 22.26744 114.85220 12107 ft 299 kts 267°
2026-05-05 22:40 22.26672 114.82990 11747 ft 296 kts 267°
2026-05-05 22:40 22.26560 114.80784 11390 ft 293 kts 261°
2026-05-05 22:41 22.26032 114.78676 11042 ft 290 kts 248°
2026-05-05 22:41 22.25038 114.76801 10861 ft 291 kts 234°
2026-05-05 22:41 22.23618 114.75158 10755 ft 305 kts 225°
2026-05-05 22:41 22.22076 114.73574 10625 ft 307 kts 225°
2026-05-05 22:42 22.20527 114.71984 10503 ft 307 kts 225°
2026-05-05 22:42 22.18981 114.70396 10369 ft 307 kts 225°
2026-05-05 22:42 22.17439 114.68811 10240 ft 303 kts 225°
2026-05-05 22:42 22.15939 114.67273 10115 ft 292 kts 225°
2026-05-05 22:43 22.14491 114.65786 9887 ft 285 kts 226°
2026-05-05 22:43 22.13076 114.64331 9795 ft 280 kts 226°
2026-05-05 22:43 22.11665 114.62877 9728 ft 281 kts 226°
2026-05-05 22:43 22.10255 114.61426 9621 ft 280 kts 226°
2026-05-05 22:44 22.08845 114.59979 9513 ft 279 kts 226°
2026-05-05 22:44 22.07438 114.58536 9400 ft 279 kts 226°
2026-05-05 22:44 22.06035 114.57100 9287 ft 278 kts 225°
2026-05-05 22:44 22.04632 114.55665 9140 ft 277 kts 226°
2026-05-05 22:45 22.03238 114.54236 9075 ft 276 kts 227°
2026-05-05 22:45 22.02084 114.52608 8971 ft 273 kts 243°
2026-05-05 22:45 22.01396 114.50937 8922 ft 273 kts 249°
2026-05-05 22:46 22.00736 114.49237 8858 ft 274 kts 248°
2026-05-05 22:46 22.00012 114.47348 8782 ft 272 kts 248°
2026-05-05 22:47 21.99292 114.45458 8714 ft 273 kts 249°
2026-05-05 22:47 21.98572 114.43556 8629 ft 274 kts 248°
2026-05-05 22:47 21.97851 114.41658 8560 ft 273 kts 248°
2026-05-05 22:47 21.97131 114.39775 8496 ft 273 kts 248°
2026-05-05 22:48 21.96409 114.37888 8416 ft 272 kts 248°
2026-05-05 22:48 21.95689 114.36013 8338 ft 270 kts 248°
2026-05-05 22:48 21.94973 114.34147 8268 ft 271 kts 248°
2026-05-05 22:48 21.94252 114.32270 8197 ft 272 kts 248°
2026-05-05 22:49 21.93530 114.30394 8119 ft 270 kts 248°
2026-05-05 22:49 21.92807 114.28516 8046 ft 273 kts 248°
2026-05-05 22:49 21.92081 114.26628 7977 ft 272 kts 248°
2026-05-05 22:49 21.91359 114.24750 7905 ft 271 kts 248°
2026-05-05 22:50 21.90884 114.23512 7852 ft 270 kts 248°
2026-05-05 22:50 21.90177 114.21633 7789 ft 270 kts 252°
2026-05-05 22:50 21.89865 114.19656 7711 ft 269 kts 270°
2026-05-05 22:50 21.90152 114.17696 7640 ft 270 kts 287°
2026-05-05 22:51 21.90963 114.15892 7572 ft 274 kts 297°
2026-05-05 22:51 21.91899 114.14100 7497 ft 275 kts 297°
2026-05-05 22:51 21.92840 114.12281 7420 ft 273 kts 296°
2026-05-05 22:51 21.93759 114.10496 7345 ft 273 kts 297°
2026-05-05 22:52 21.94669 114.08730 7273 ft 272 kts 297°
2026-05-05 22:52 21.95594 114.06937 7199 ft 276 kts 297°
2026-05-05 22:52 21.96524 114.05139 7130 ft 277 kts 297°
2026-05-05 22:52 21.97464 114.03325 7055 ft 278 kts 297°
2026-05-05 22:53 21.98402 114.01508 6983 ft 277 kts 297°
2026-05-05 22:53 21.99336 113.99696 6911 ft 277 kts 297°
2026-05-05 22:53 22.00256 113.97906 6836 ft 276 kts 297°
2026-05-05 22:53 22.01200 113.96071 6765 ft 277 kts 297°
2026-05-05 22:54 22.02126 113.94283 6690 ft 276 kts 297°
2026-05-05 22:54 22.03072 113.92454 6610 ft 276 kts 296°
2026-05-05 22:54 22.04001 113.90648 6544 ft 276 kts 296°
2026-05-05 22:54 22.04930 113.88839 6467 ft 276 kts 296°
2026-05-05 22:55 22.05862 113.87027 6391 ft 276 kts 297°
2026-05-05 22:55 22.06794 113.85216 6317 ft 277 kts 298°
2026-05-05 22:55 22.07729 113.83403 6246 ft 276 kts 297°
2026-05-05 22:55 22.08661 113.81592 6169 ft 276 kts 297°
2026-05-05 22:56 22.09590 113.79786 6102 ft 276 kts 297°
2026-05-05 22:56 22.10711 113.78106 6021 ft 278 kts 313°
2026-05-05 22:56 22.12241 113.76800 5642 ft 287 kts 328°
2026-05-05 22:56 22.14090 113.75852 4889 ft 301 kts 335°
2026-05-05 22:57 22.16033 113.74902 4250 ft 309 kts 335°
2026-05-05 22:57 22.18001 113.74061 4046 ft 300 kts 345°
2026-05-05 22:57 22.20019 113.73751 3918 ft 288 kts
2026-05-05 22:57 22.21973 113.73971 3729 ft 277 kts 14°
2026-05-05 22:58 22.23777 113.74638 3087 ft 272 kts 30°
2026-05-05 22:58 22.25317 113.75720 2722 ft 256 kts 41°
2026-05-05 22:58 22.26516 113.77051 2448 ft 241 kts 54°
2026-05-05 22:58 22.27381 113.78519 2163 ft 225 kts 65°
2026-05-05 22:59 22.27938 113.80041 1885 ft 213 kts 72°
2026-05-05 22:59 22.28416 113.81514 1645 ft 199 kts 72°
2026-05-05 22:59 22.28851 113.82854 1382 ft 178 kts 72°
2026-05-05 22:59 22.29228 113.84020 1149 ft 155 kts 72°
2026-05-05 23:00 22.29907 113.86122 767 ft 144 kts 71°
2026-05-05 23:00 22.30242 113.87129 592 ft 142 kts 72°
2026-05-05 23:00 22.30573 113.88133 422 ft 142 kts 72°
2026-05-05 23:01 22.30887 113.89133 237 ft 139 kts 73°
2026-05-05 23:01 22.31199 113.90123 64 ft 139 kts 73°
2026-05-05 23:01 22.31479 113.91020 33 ft 109 kts 71°
2026-05-05 23:01 22.31677 113.91617 33 ft 60 kts 70°
2026-05-05 23:02 22.31761 113.91871 33 ft 18 kts 72°
2026-05-05 23:02 22.31793 113.92016 33 ft 21 kts 83°
2026-05-05 23:02 22.31784 113.92174 33 ft 21 kts 102°
2026-05-05 23:02 22.31754 113.92317 32 ft 14 kts 99°
2026-05-05 23:03 22.31730 113.92419 32 ft 14 kts 128°
2026-05-05 23:03 22.31653 113.92395 32 ft 14 kts 240°
2026-05-05 23:03 22.31617 113.92295 32 ft 15 kts 250°
2026-05-05 23:03 22.31583 113.92187 31 ft 16 kts 251°
2026-05-05 23:04 22.31547 113.92072 32 ft 17 kts 251°
2026-05-05 23:04 22.31508 113.91951 32 ft 17 kts 251°
2026-05-05 23:04 22.31479 113.91862 32 ft 12 kts 249°
2026-05-05 23:04 22.31431 113.91805 32 ft 11 kts 186°
2026-05-05 23:05 22.31354 113.91829 32 ft 12 kts 161°
2026-05-05 23:05 22.31270 113.91861 32 ft 13 kts 161°
2026-05-05 23:05 22.31178 113.91895 32 ft 15 kts 161°
2026-05-05 23:05 22.31078 113.91932 39 ft 16 kts 161°
2026-05-05 23:06 22.30981 113.91968 32 ft 11 kts 161°
2026-05-05 23:06 22.30922 113.91982 32 ft 7 kts 187°
2026-05-05 23:06 22.30894 113.91941 32 ft 7 kts 251°
2026-05-05 23:06 22.30885 113.91913 32 ft 1 kts 251°
2026-05-05 23:07 22.30885 113.91912 32 ft 0 kts 251°